[[{"header":{"parameterUnit":"m.s-1","parameterCategory":1,"la1":30.2991,"la2":30.254,"lo1":-89.0895,"lo2":-89.0444,"dy":0.0017,"dx":0.0017,"nx":28,"ny":28,"refTime":"2023-09-12T09:00:00:Z","depth":0,"parameterNumber":2,"parameterNumberName":"U-component_of_WINDS"},"data":[0,0,0,0,0,0,0,0,0,0,0,0,0,0,0,0,0,0,0,0,0,0,0,0,0,0,0,0,0,0,0,0,0,0,0,0,0,0,0,0,0,0,0,0,0,0,0,0,0,0,0,0,0,0,0,0,0,0,-0.1535,-0.1535,0,-0.1506,-0.1506,-0.1505,-0.1434,-0.1433,-0.1431,-0.143,-0.1402,-0.1403,-0.1404,0,0,0,0,0,0,0,0,0,0,0,0,0,-0.1532,-0.1532,-0.1535,-0.1535,-0.1535,-0.1506,-0.1506,-0.1505,-0.1434,-0.1433,-0.1431,-0.1429,-0.1402,-0.1403,-0.1404,0,0,0,0,0,0,0,0,0,0,0,0,0,-0.1521,-0.1532,-0.1535,-0.1496,-0.1492,-0.1506,-0.1506,-0.1505,-0.1435,-0.1433,-0.143,-0.1428,-0.1402,-0.1403,-0.1404,-0.1455,0,0,-0.1407,-0.1407,0,0,0,0,0,0,0,0,-0.1522,-0.1521,-0.1502,-0.1498,-0.1494,-0.1471,-0.1494,-0.1488,-0.1435,-0.1457,-0.143,-0.1427,-0.1427,-0.1426,-0.1426,-0.1454,-0.1453,-0.1407,-0.1408,-0.1408,-0.1408,0,0,0,0,0,0,0,-0.1523,-0.1522,-0.1524,-0.1502,-0.1497,-0.148,-0.1476,-0.1493,-0.1455,-0.1455,-0.1449,-0.1447,-0.1425,-0.1425,-0.1424,-0.1452,-0.1407,-0.1408,-0.1409,-0.1409,-0.152,-0.1522,0,0,0,0,0,0,-0.1529,-0.1523,-0.1525,-0.1523,-0.1503,-0.1482,-0.1477,-0.1481,-0.1455,-0.1448,-0.1449,-0.1443,-0.1424,-0.1423,-0.1423,-0.1481,-0.1408,-0.1409,-0.141,-0.1517,-0.152,-0.1523,0,0,0,0,0,0,-0.1529,-0.153,-0.1526,-0.1522,-0.152,-0.1484,-0.1489,-0.1482,-0.1481,-0.145,-0.1443,-0.1455,-0.1422,-0.1422,-0.1447,-0.1479,-0.141,-0.141,-0.1515,-0.1518,-0.1521,-0.1597,0,0,0,0,0,0,-0.1529,-0.153,-0.1549,-0.1523,-0.152,-0.155,-0.1491,-0.1483,-0.1483,-0.1476,-0.1455,-0.1449,-0.1421,-0.1446,-0.1448,-0.1479,-0.1411,-0.1512,-0.1516,-0.152,-0.1592,-0.1603,-0.1612,0,0,0,0,0,-0.1529,-0.1572,-0.155,-0.1551,-0.1543,-0.1552,-0.1551,-0.1517,-0.1486,-0.1505,-0.1484,-0.145,-0.1475,-0.1449,-0.1451,-0.1483,-0.1509,-0.1515,-0.152,-0.1587,-0.1601,-0.1612,0,0,0,0,0,0,-0.1605,-0.1568,-0.1543,-0.1579,-0.1569,-0.154,-0.1563,-0.1532,-0.1532,-0.1525,-0.1483,-0.1479,-0.151,-0.1499,-0.1471,-0.153,-0.1487,-0.1492,-0.1537,-0.1549,-0.156,-0.1562,-0.1412,0,0,0,0,0,-0.1625,-0.1635,-0.1603,-0.1637,-0.1633,-0.1599,-0.1602,-0.1576,-0.1564,-0.156,-0.1542,-0.1533,-0.1538,-0.1543,-0.1547,-0.1589,-0.1583,-0.1612,-0.1622,-0.1631,-0.1637,-0.1658,-0.167,-0.154,-0.154,-0.154,0,0,-0.1668,-0.1649,-0.1658,-0.1652,-0.1641,-0.1653,-0.1596,-0.1611,-0.1619,-0.1563,-0.1585,-0.1571,-0.1558,-0.1592,-0.1607,-0.1584,-0.1671,-0.1637,-0.1645,-0.1646,-0.1664,-0.1677,-0.1688,-0.1544,-0.1543,-0.1542,0,0,-0.1752,-0.1739,-0.1766,-0.1756,-0.174,-0.1716,-0.1723,-0.1698,-0.1687,-0.1708,-0.1666,-0.1675,-0.1686,-0.1678,-0.1676,-0.1755,-0.1724,-0.1758,-0.1812,-0.1833,-0.1844,-0.1852,-0.1881,-0.1892,-0.1763,-0.1764,-0.1764,0,-0.1808,-0.1823,-0.1784,-0.1801,-0.1799,-0.1747,-0.1774,-0.1767,-0.1753,-0.1754,-0.1728,-0.174,-0.1727,-0.1758,-0.1778,-0.1777,-0.1784,-0.1761,-0.1845,-0.1854,-0.1861,-0.1888,-0.1899,-0.1768,-0.1767,-0.1767,-0.1767,0,-0.1892,-0.1903,-0.1927,-0.1914,-0.1915,-0.1937,-0.1901,-0.1907,-0.1881,-0.186,-0.1883,-0.1866,-0.1865,-0.187,-0.1845,-0.1898,-0.1884,-0.1852,-0.1808,-0.1879,-0.1903,-0.1913,-0.1774,-0.1773,-0.1771,-0.177,0,0,-0.2025,-0.1988,-0.1998,-0.1991,-0.1969,-0.1977,-0.1996,-0.1994,-0.2,-0.1992,-0.2007,-0.2017,-0.1987,-0.1984,-0.1958,-0.1976,-0.204,-0.1942,-0.1941,-0.1961,-0.2097,-0.2121,-0.2134,-0.2018,-0.202,-0.2022,-0.2098,0,-0.2104,-0.2135,-0.2099,-0.2138,-0.2147,-0.2097,-0.2114,-0.2103,-0.2084,-0.209,-0.2069,-0.2076,-0.2036,-0.2034,-0.205,-0.2029,-0.2067,-0.2023,-0.2033,-0.2034,-0.2039,-0.2147,-0.2173,-0.2246,-0.2107,-0.2109,-0.211,0,-0.2201,-0.2196,-0.2235,-0.221,-0.2212,-0.2228,-0.2223,-0.2229,-0.2215,-0.2199,-0.2196,-0.2163,-0.2181,-0.2136,-0.216,-0.2131,-0.2133,-0.2123,-0.2125,-0.2126,-0.2077,-0.215,-0.2268,-0.228,-0.2125,-0.2124,-0.2123,0,-0.2294,-0.2297,-0.2321,-0.2316,-0.2287,-0.2299,-0.2288,-0.2271,-0.2272,-0.2267,-0.2267,-0.2265,-0.2264,-0.2263,-0.2231,-0.2202,-0.2259,-0.2212,-0.2248,-0.2249,-0.2263,-0.2262,-0.2383,-0.2263,-0.2263,-0.2263,-0.2263,0,-0.2386,-0.2412,-0.2362,-0.2377,-0.2404,-0.2363,-0.2392,-0.2375,-0.2361,-0.2371,-0.2328,-0.2339,-0.2296,-0.2302,-0.2277,-0.2301,-0.2301,-0.2289,-0.2282,-0.2293,-0.2295,-0.2295,-0.2289,-0.2266,-0.2265,-0.2264,-0.2264,0,-0.2495,-0.2462,-0.2485,-0.2454,-0.2447,-0.2469,-0.2443,-0.2456,-0.2433,-0.2448,-0.2449,-0.2414,-0.2419,-0.2387,-0.2387,-0.237,-0.2406,-0.239,-0.241,-0.2406,-0.2443,-0.244,-0.2568,-0.2583,-0.2453,-0.2455,-0.2456,0,-0.2557,-0.2575,-0.2546,-0.255,-0.254,-0.2547,-0.2547,-0.2507,-0.2509,-0.2493,-0.2508,-0.2509,-0.2508,-0.2519,-0.2495,-0.2494,-0.2478,-0.2523,-0.2478,-0.2488,-0.2479,-0.2479,-0.248,-0.2533,-0.2535,-0.2536,-0.2537,0,-0.2669,-0.2652,-0.2653,-0.2648,-0.2649,-0.2644,-0.2636,-0.2641,-0.2598,-0.2602,-0.2606,-0.2606,-0.2605,-0.2607,-0.2601,-0.2589,-0.2557,-0.2551,-0.2559,-0.2571,-0.2582,-0.2577,-0.2437,-0.2549,-0.2547,-0.2547,-0.2546,-0.2545,-0.2757,-0.277,-0.2752,-0.2755,-0.2744,-0.2737,-0.2747,-0.2725,-0.2728,-0.2723,-0.2699,-0.2708,-0.2693,-0.2681,-0.2673,-0.2679,-0.2658,-0.267,-0.2673,-0.2676,-0.2683,-0.2581,-0.2678,-0.2677,-0.2677,-0.2677,-0.2676,0,-0.2867,-0.2852,-0.2855,-0.2844,-0.2846,-0.2813,-0.2802,-0.2806,-0.2814,-0.2802,-0.2802,-0.2806,-0.2808,-0.2783,-0.2781,-0.2791,-0.2776,-0.2792,-0.2791,-0.2789,-0.2702,-0.2695,-0.2804,-0.2804,-0.2804,-0.2804,-0.2804,-0.2804,-0.2925,-0.2947,-0.2927,-0.2943,-0.2928,-0.2935,-0.2932,-0.2925,-0.2915,-0.2922,-0.2923,-0.2906,-0.2888,-0.2885,-0.2885,-0.2877,-0.2879,-0.29,-0.2888,-0.2808,-0.2795,-0.2783,-0.2777,-0.2901,-0.2901,-0.2974,-0.2975,-0.2975]},{"header":{"parameterUnit":"m.s-1","parameterCategory":1,"la1":30.2991,"la2":30.254,"lo1":-89.0895,"lo2":-89.0444,"dy":0.0017,"dx":0.0017,"nx":28,"ny":28,"refTime":"2023-09-12T09:00:00:Z","depth":0,"parameterNumber":3,"parameterNumberName":"V-component_of_WINDS"},"data":[0,0,0,0,0,0,0,0,0,0,0,0,0,0,0,0,0,0,0,0,0,0,0,0,0,0,0,0,0,0,0,0,0,0,0,0,0,0,0,0,0,0,0,0,0,0,0,0,0,0,0,0,0,0,0,0,0,0,-2.436,-2.436,0,-2.4396,-2.4396,-2.4397,-2.4382,-2.4382,-2.4381,-2.438,-2.4415,-2.4417,-2.4418,0,0,0,0,0,0,0,0,0,0,0,0,0,-2.4276,-2.4278,-2.436,-2.436,-2.4361,-2.4396,-2.4396,-2.4397,-2.4383,-2.4382,-2.4381,-2.438,-2.4414,-2.4416,-2.4418,0,0,0,0,0,0,0,0,0,0,0,0,0,-2.4312,-2.4278,-2.436,-2.4358,-2.4358,-2.4396,-2.4396,-2.4397,-2.4383,-2.4382,-2.438,-2.4379,-2.4414,-2.4416,-2.4419,-2.446,0,0,-2.4427,-2.4428,0,0,0,0,0,0,0,0,-2.431,-2.4315,-2.4358,-2.4358,-2.4358,-2.4383,-2.438,-2.4418,-2.4383,-2.4373,-2.438,-2.4379,-2.4405,-2.4408,-2.4418,-2.4461,-2.4463,-2.4427,-2.4428,-2.4429,-2.443,0,0,0,0,0,0,0,-2.4308,-2.4314,-2.4374,-2.4358,-2.4359,-2.4354,-2.4358,-2.4387,-2.4396,-2.4374,-2.4373,-2.4378,-2.4405,-2.4416,-2.4419,-2.4463,-2.4427,-2.4429,-2.4431,-2.4432,-2.4541,-2.4542,0,0,0,0,0,0,-2.4305,-2.4312,-2.4373,-2.4375,-2.4331,-2.4357,-2.4361,-2.4377,-2.4396,-2.4397,-2.4379,-2.4377,-2.4412,-2.4416,-2.442,-2.4468,-2.4429,-2.4432,-2.4433,-2.4539,-2.4541,-2.4542,0,0,0,0,0,0,-2.4304,-2.4311,-2.4371,-2.4343,-2.4351,-2.436,-2.4377,-2.4378,-2.4388,-2.4399,-2.44,-2.4388,-2.4411,-2.4416,-2.445,-2.4469,-2.4433,-2.4435,-2.4538,-2.454,-2.4542,-2.4565,0,0,0,0,0,0,-2.4301,-2.4311,-2.4327,-2.4344,-2.4352,-2.4401,-2.4378,-2.438,-2.4393,-2.4391,-2.4408,-2.4409,-2.441,-2.4446,-2.4452,-2.4472,-2.4437,-2.4536,-2.4539,-2.4541,-2.4563,-2.4568,-2.4572,0,0,0,0,0,-2.4298,-2.4332,-2.4328,-2.4335,-2.4373,-2.4403,-2.4407,-2.4408,-2.4395,-2.441,-2.4417,-2.4409,-2.4466,-2.4449,-2.4456,-2.4477,-2.4535,-2.4538,-2.4541,-2.456,-2.4567,-2.4572,0,0,0,0,0,0,-2.4316,-2.4334,-2.433,-2.4369,-2.4385,-2.44,-2.442,-2.4415,-2.4434,-2.4431,-2.4431,-2.4435,-2.4469,-2.4477,-2.4458,-2.4517,-2.4498,-2.4503,-2.4511,-2.4517,-2.4521,-2.4518,-2.4439,0,0,0,0,0,-2.4325,-2.4348,-2.4362,-2.4396,-2.4404,-2.4411,-2.4424,-2.4423,-2.4439,-2.4445,-2.4454,-2.4469,-2.449,-2.4504,-2.4524,-2.4564,-2.4567,-2.4581,-2.4586,-2.459,-2.4594,-2.4614,-2.462,-2.4552,-2.4552,-2.4552,0,0,-2.4343,-2.4355,-2.437,-2.44,-2.4412,-2.4435,-2.4416,-2.4442,-2.4459,-2.4449,-2.4481,-2.4488,-2.4504,-2.4541,-2.4557,-2.4548,-2.4613,-2.4594,-2.4597,-2.4598,-2.4618,-2.4624,-2.463,-2.4554,-2.4554,-2.4554,0,0,-2.4387,-2.44,-2.4429,-2.4441,-2.4459,-2.4463,-2.447,-2.4487,-2.4491,-2.4523,-2.4516,-2.4536,-2.4573,-2.4584,-2.4595,-2.4643,-2.4636,-2.465,-2.4674,-2.4694,-2.4699,-2.4704,-2.472,-2.4726,-2.4654,-2.4654,-2.4654,0,-2.4407,-2.4442,-2.4444,-2.447,-2.4483,-2.4475,-2.4504,-2.4516,-2.4539,-2.4548,-2.4538,-2.4583,-2.4594,-2.4632,-2.4644,-2.4653,-2.466,-2.4647,-2.4698,-2.4703,-2.4708,-2.4723,-2.4729,-2.4655,-2.4655,-2.4655,-2.4655,0,-2.4465,-2.449,-2.4511,-2.4534,-2.455,-2.4577,-2.4582,-2.4597,-2.4595,-2.46,-2.4633,-2.4645,-2.4667,-2.4677,-2.4675,-2.4715,-2.4708,-2.4698,-2.4679,-2.4716,-2.473,-2.4736,-2.4657,-2.4657,-2.4656,-2.4656,0,0,-2.4521,-2.4545,-2.4553,-2.4563,-2.4582,-2.4601,-2.4628,-2.465,-2.4662,-2.4679,-2.47,-2.4731,-2.4722,-2.4734,-2.4734,-2.4752,-2.4788,-2.4739,-2.4739,-2.4747,-2.4831,-2.4837,-2.4844,-2.4783,-2.4784,-2.4785,-2.4829,0,-2.4566,-2.4613,-2.4615,-2.4658,-2.468,-2.4673,-2.4696,-2.471,-2.4716,-2.4735,-2.474,-2.4762,-2.4749,-2.4756,-2.4773,-2.478,-2.4804,-2.4777,-2.4802,-2.4803,-2.4797,-2.4852,-2.4859,-2.4899,-2.4835,-2.4836,-2.4836,0,-2.4625,-2.4643,-2.4688,-2.4704,-2.4713,-2.4734,-2.4754,-2.4773,-2.4788,-2.4791,-2.4804,-2.4801,-2.4827,-2.4808,-2.4843,-2.4825,-2.4835,-2.484,-2.4841,-2.4843,-2.4821,-2.4853,-2.4913,-2.4918,-2.4845,-2.4845,-2.4844,0,-2.4659,-2.4696,-2.4727,-2.4736,-2.4756,-2.477,-2.4779,-2.4793,-2.4806,-2.4823,-2.4831,-2.4851,-2.4862,-2.4877,-2.4879,-2.4865,-2.4914,-2.4895,-2.4916,-2.4916,-2.4926,-2.4925,-2.4986,-2.4935,-2.4934,-2.4934,-2.4934,0,-2.4708,-2.4736,-2.4743,-2.4762,-2.4793,-2.4794,-2.4824,-2.4831,-2.4844,-2.4864,-2.4859,-2.4877,-2.488,-2.4898,-2.49,-2.4928,-2.4933,-2.4935,-2.4935,-2.4935,-2.4935,-2.4941,-2.4938,-2.4936,-2.4936,-2.4935,-2.4935,0,-2.4752,-2.4758,-2.4792,-2.4807,-2.4812,-2.4833,-2.4846,-2.4864,-2.4869,-2.4894,-2.49,-2.4908,-2.493,-2.4933,-2.4959,-2.496,-2.4993,-2.4991,-2.4988,-2.4988,-2.5008,-2.5005,-2.5074,-2.5083,-2.5027,-2.5027,-2.5028,0,-2.4782,-2.4804,-2.4821,-2.4835,-2.4844,-2.4866,-2.4879,-2.4881,-2.4895,-2.4914,-2.4929,-2.4951,-2.4968,-2.5003,-2.501,-2.5029,-2.5026,-2.5049,-2.5029,-2.5028,-2.5025,-2.5024,-2.5025,-2.5053,-2.5053,-2.5054,-2.5054,0,-2.4835,-2.4837,-2.4857,-2.4878,-2.4894,-2.491,-2.4925,-2.4936,-2.494,-2.4956,-2.4979,-2.4992,-2.5018,-2.5039,-2.5058,-2.5066,-2.506,-2.5061,-2.5066,-2.5066,-2.5063,-2.5064,-2.4998,-2.5059,-2.5058,-2.5058,-2.5058,-2.5058,-2.4872,-2.489,-2.4906,-2.4928,-2.494,-2.4954,-2.4971,-2.4979,-2.4998,-2.502,-2.502,-2.5044,-2.5058,-2.5083,-2.5092,-2.5111,-2.5103,-2.5112,-2.5114,-2.5115,-2.5117,-2.5061,-2.5114,-2.5114,-2.5114,-2.5114,-2.5114,0,-2.4924,-2.4934,-2.4954,-2.4976,-2.4992,-2.4987,-2.5003,-2.5018,-2.5039,-2.5053,-2.507,-2.5096,-2.5116,-2.5125,-2.5144,-2.5157,-2.5155,-2.5162,-2.5161,-2.5162,-2.5123,-2.5115,-2.5164,-2.5164,-2.5164,-2.5164,-2.5164,-2.5164,-2.4953,-2.4983,-2.4986,-2.5022,-2.5031,-2.5055,-2.5065,-2.5078,-2.5089,-2.5118,-2.5135,-2.5141,-2.5152,-2.5172,-2.519,-2.5192,-2.5199,-2.5207,-2.5208,-2.517,-2.5165,-2.516,-2.5153,-2.5209,-2.5209,-2.5246,-2.5246,-2.5246]}]]